Back to catalog

STARLINK-3338

AliveCommunicationsVLEO
NORAD 50812·PAYLOAD·🇺🇸 United States

Launched Jan 6, 2022 from Cape Canaveral Space Force Station

Loading…

Next Passes (next 24 hours)

TLE

FreshSource: CelesTrak SupGP

Epoch: Sep 14, 2026, 14:12 UTC

1 50812C 22001K   26257.59215278 -.00037774  00000+0 -11163-2 0  2572
2 50812  53.1600  23.0997 0001183  89.4985   2.2983 15.34401277    18

Track STARLINK-3338 in real time with AllMySat

Download on the App Store